TIME,DELAY(SENSOR),PRES,OXYGEN,RAWTEMP,T(OPTODE),TCPHASE,FLUOR,BETA(BETA700),BETA(BETA412),BETA(BETA440),CDOM,C(CSC),ED(ED412.40),ED(ED444.00),ED(ED489.70),ED(ED554.30),LU(LU411.80),LU(LU443.40),LU(LU489.60),LU(LU554.10),COMP,TILTX,TILTY,CHECK
1346038828,5806,862.7399902343750000,47.2651405334472660,663.8770751953125000,4.5002479553222660,53.9757194519043000,53,100,88,80,82,15293,2147758427,2147421046,2148008777,2147874761,2147643419,2147061732,2148256676,2147198528,2536,4,13,17622
1346042424,5809,948.1300048828125000,51.0995597839355500,672.4822998046875000,4.2161622047424320,53.5475616455078100,53,99,89,78,81,15294,2147760676,2147422217,2148006912,2147874706,2147645376,2147065819,2148257078,2147194550,232,5,13,44710
1346046024,5809,960.8300170898438000,51.0789489746093750,673.1953735351562000,4.1925849914550780,53.5585594177246100,53,99,88,78,82,15295,2147759305,2147420086,2148008146,2147871945,2147645796,2147056969,2148257060,2147199515,3267,5,13,34116
1346049624,5807,992.4099731445312000,49.6771087646484400,675.1875000000000000,4.1266818046569820,53.7821502685546900,52,102,87,80,81,15292,2147759378,2147419053,2148006729,2147874843,2147645412,2147061906,2148258806,2147198893,3593,4,13,10469
1346053224,5808,999.1199951171875000,49.8913002014160160,676.6105957031250000,4.0795760154724120,53.7706718444824200,51,99,91,78,80,15293,2147756443,2147420653,2148009408,2147874258,2147645101,2147063424,2148259620,2147197915,165,5,13,22281
1346056824,5809,1004.4899902343750000,49.3817596435546900,675.3696899414062000,4.1206531524658200,53.8245086669921900,53,96,86,79,82,15291,2147758363,2147422802,2148005997,2147874514,2147641801,2147062253,2148256164,2147198089,64,5,13,55539
1346060424,5811,1002.6300048828125000,49.5065307617187500,676.2229003906250000,4.0924110412597660,53.8171195983886700,53,98,86,79,81,15286,2147758957,2147424201,2148009435,2147877412,2147642066,2147062089,2148258852,2147198966,57,5,13,26598
1346064024,5808,993.9899902343750000,49.5137214660644500,677.3259887695312000,4.0558848381042480,53.8322906494140600,53,98,89,79,82,15288,2147761060,2147418989,2148004909,2147877494,2147644306,2147058230,2148255488,2147199972,2657,4,13,24787
1346067624,5809,997.0999755859375000,50.2821083068847660,678.9959106445312000,4.0005679130554200,53.7444381713867200,52,99,85,78,81,15287,2147760393,2147422372,2148009316,2147873920,2147645312,2147061805,2148257380,2147196105,3136,5,13,60552
1346071224,5809,1007.0000000000000000,50.2796897888183600,678.1448974609375000,4.0287628173828125,53.7309913635253900,52,98,90,79,82,15287,2147760502,2147423661,2148008292,2147874441,2147644434,2147059867,2148256603,2147196123,3237,4,13,28581
1346074824,5806,1002.5200195312500000,49.9437599182128900,678.6403808593750000,4.0123438835144040,53.7892913818359400,52,97,86,79,82,15289,2147758208,2147422555,2148009152,2147872795,2147642322,2147053933,2148259702,2147198025,166,5,13,16478
1346078424,5811,998.3099975585938000,50.0080718994140600,679.2598876953125000,3.9918169975280760,53.7874107360839840,53,98,86,78,82,15287,2147758921,2147420800,2148009270,2147872155,2147645750,2147063606,2148258724,2147196672,343,5,13,37082
1346082024,5809,998.0100097656250000,50.0662612915039060,678.9813232421875000,4.0010509490966800,53.7741889953613300,53,100,89,80,82,15288,2147758939,2147424685,2148008649,2147873316,2147645686,2147060507,2148262537,2147201216,267,5,13,48062
1346085624,5810,1002.8699951171875000,50.4982986450195300,679.5659790039062000,3.9816720485687256,53.7220306396484400,52,97,88,78,82,15285,2147760091,2147422966,2148012397,2147875090,2147645193,2147058038,2148256859,2147199917,3547,5,13,46404
1346089224,5808,1001.3200073242188000,49.9879417419433600,678.7993774414062000,4.0070800781250000,53.7840995788574200,53,101,88,79,82,15284,2147759286,2147424448,2148007981,2147874249,2147644964,2147062016,2148259849,2147196397,298,5,13,26248
1346092824,5812,1010.4799804687500000,49.8595390319824200,677.9298706054688000,4.0358829498291020,53.7895507812500000,53,97,90,79,83,15282,2147762432,2147422857,2148008402,2147872713,2147647149,2147057590,2148264082,2147199268,3458,5,13,29137
1346096424,5809,1001.9000244140625000,49.5045394897460940,677.9799804687500000,4.0342240333557130,53.8393211364746100,52,100,87,79,81,15279,2147761846,2147422838,2148004982,2147873993,2147645595,2147060086,2148264393,2147198500,513,4,13,36258
1346100024,5811,1007.7800292968750000,49.6755409240722660,678.1652221679688000,4.0280909538269040,53.8158302307128900,52,98,86,79,83,15282,2147763163,2147419382,2148009298,2147877065,2147644242,2147064173,2148259190,2147195867,406,5,13,8759
1346103624,5808,1002.1799926757812000,49.5107498168945300,678.7636108398438000,4.0082650184631350,53.8507308959960940,52,100,87,78,82,15281,2147761526,2147419547,2148010331,2147871268,2147644690,2147058633,2148259117,2147197659,413,5,13,49221
1346107224,5810,996.7299804687500000,50.2920608520507800,679.3394165039062000,3.9891829490661620,53.7467308044433600,52,99,87,80,84,15284,2147761892,2147420662,2148007396,2147878802,2147646784,2147057344,2148264018,2147197732,359,5,13,23724
1346110824,5810,1004.5000000000000000,50.8406600952148440,679.4500732421875000,3.9855139255523680,53.6778602600097660,52,101,88,79,83,15264,2147761371,2147425380,2148006153,2147872768,2147643565,2147057728,2148262080,2147200704,281,5,13,11597
1346114424,5810,994.9000244140625000,49.9806404113769500,679.5396118164062000,3.9825520515441895,53.7909393310546900,52,99,88,78,83,15265,2147760877,2147421312,2148006793,2147874550,2147642861,2147059209,2148259602,2147196489,3571,5,13,48697
1346118024,5809,992.3599853515625000,51.5438690185546900,680.1126708984375000,3.9635519981384277,53.5852088928222660,53,99,86,79,82,15266,2147760886,2147423817,2148009837,2147875072,2147647241,2147064192,2148262153,2147201362,370,5,13,32232
1346121624,5810,1005.9699707031250000,51.6621704101562500,679.4791870117188000,3.9845499992370605,53.5620384216308600,52,98,85,78,82,15262,2147759899,2147421156,2148009846,2147876251,2147644818,2147063478,2148258697,2147195556,3267,5,13,60190
1346125224,5811,1016.0300292968750000,50.0932197570800800,678.4130859375000000,4.0198779106140140,53.7653694152832000,52,101,86,79,81,15264,2147757933,2147422226,2148007414,2147875501,2147645833,2147061321,2148261440,2147198162,408,5,13,63358
1346128824,5810,1011.2700195312500000,49.6543312072753900,678.3026733398438000,4.0235347747802730,53.8248100280761700,53,99,91,79,83,15263,2147756187,2147420891,2148008246,2147874002,2147645750,2147059986,2148257673,2147199021,436,4,13,53121
1346132424,5808,1018.2299804687500000,49.6847991943359400,677.7633056640625000,4.0414028167724610,53.8090095520019500,52,99,87,79,81,15263,2147760932,2147421888,2148008128,2147872896,2147644681,2147062418,2148259081,2147197467,3570,4,13,30017
1346136024,5809,1016.8900146484375000,49.6176300048828100,677.5975952148438000,4.0468921661376950,53.8166885375976560,52,98,85,78,82,15261,2147757120,2147420516,2148008091,2147876333,2147645632,2147059529,2148254692,2147194221,3564,5,13,43178
1346139624,5808,1017.7600097656250000,49.5766906738281250,678.3986816406250000,4.0203528404235840,53.8359107971191400,53,97,88,79,82,15262,2147759716,2147421805,2148007597,2147873691,2147645394,2147062354,2148253549,2147198171,3525,5,13,43195
1346143224,5812,1016.0800170898438000,49.7910194396972660,678.6428222656250000,4.0122680664062500,53.8055992126464840,53,100,88,80,82,15262,2147761490,2147424868,2148007698,2147873426,2147646592,2147061458,2148256493,2147198555,261,4,13,4981
1346146824,5808,1007.8099975585938000,50.2893409729003900,679.5349121093750000,3.9827079772949220,53.7482109069824200,52,97,90,80,82,15263,2147760320,2147419840,2148011492,2147874861,2147645622,2147058624,2148262034,2147198482,280,5,13,41238
1346150424,5811,996.8099975585938000,51.4825096130371100,680.1558837890625000,3.9621219635009766,53.5982513427734400,52,100,90,79,81,15261,2147763200,2147420507,2148009883,2147875757,2147644800,2147057298,2148263634,2147195318,393,5,13,28292
1346154024,5808,1000.8099975585938000,52.9152717590332000,681.8056030273438000,3.9074170589447020,53.4248580932617200,53,96,87,79,81,15261,2147760877,2147423990,2148009828,2147873344,2147644306,2147063643,2148256475,2147197558,3285,5,13,62509
1346157624,5808,1020.0999755859375000,52.2706184387207000,679.6411132812500000,3.9791870117187500,53.4813499450683600,53,98,86,80,81,15262,2147760356,2147423469,2148007040,2147873261,2147644736,2147065170,2148261037,2147196196,3016,4,13,6144
1346161224,5810,1017.2100219726562000,50.8218002319335940,679.0042114257812000,4.0002942085266110,53.6712303161621100,52,99,88,78,82,15260,2147761325,2147420800,2148009344,2147875739,2147645366,2147065792,2148262226,2147201554,368,5,13,622
1346164824,5810,1021.0000000000000000,50.6104087829589840,678.8557128906250000,4.0052151679992680,53.6956214904785160,53,100,87,78,80,15240,2147760758,2147420534,2148009801,2147872265,2147646217,2147060187,2148258706,2147197174,225,5,13,8704
1346168424,5808,1013.5300292968750000,49.5873908996582000,679.0858764648438000,3.9975850582122803,53.8407211303710940,52,98,89,78,82,15242,2147760969,2147424914,2148005586,2147876790,2147645376,2147062080,2148259300,2147197723,114,5,13,60903
1346172024,5810,1008.9199829101562000,49.9910888671875000,679.2387084960938000,3.9925210475921630,53.7873191833496100,52,98,87,80,82,15241,2147760420,2147422646,2148010669,2147872667,2147646427,2147065819,2148258194,2147193874,3359,5,13,25627
1346175624,5809,1014.7899780273438000,50.7200393676757800,678.8959960937500000,4.0038781166076660,53.6852302551269500,53,98,89,79,82,15243,2147759414,2147423149,2148007360,2147874505,2147645202,2147061467,2148258624,2147199881,3564,4,13,52430
1346179224,5802,1017.0599975585938000,49.7748603820800800,678.2371215820312000,4.0257091522216800,53.8054313659668000,52,100,87,80,81,15242,2147764772,2147420964,2148010285,2147873920,2147645494,2147064484,2148256128,2147198253,3405,4,13,17149
1346182824,5809,1012.1900024414062000,49.2460289001464840,678.4829101562500000,4.0175647735595700,53.8834381103515600,53,98,87,80,82,15236,2147759488,2147422006,2148009371,2147874450,2147644461,2147057088,2148259300,2147198006,245,5,13,40644
1346183456,5810,1011.1799926757812000,49.3120689392089840,678.8395996093750000,4.0057468414306640,53.8757705688476560,52,99,84,77,82,15289,2147761508,2147423945,2148011894,2147872256,2147643428,2147063012,2148256557,2147197147,3218,4,13,42957
